Location: Oshawa
(43.9000°N, 78.8670°W)
Time: 06:54:39
(UTC-05:00)

Altair - Visible Passes

Search period start: 05 March 2015 00:00
Search period end: 15 March 2015 01:00
Orbit: 1501 x 1683 km, 47.2° (Epoch: 03 March)

Date Brightness Start Highest point End Pass type
(mag) Time Alt. Az. Time Alt. Az. Time Alt. Az.
05 Mar 7.7 18:42:50 10° W 18:52:34 73° N 19:02:09 12° E visible
05 Mar 7.5 20:47:57 10° WNW 20:57:54 85° SSW 21:00:11 61° SE visible
05 Mar 8.8 22:53:08 10° WNW 22:58:12 29° W 22:58:12 29° W visible
06 Mar 7.8 18:17:39 10° W 18:27:21 73° N 18:37:25 10° E visible
06 Mar 7.5 20:22:47 10° WNW 20:32:43 88° SSW 20:36:29 46° ESE visible
06 Mar 8.5 22:27:53 10° WNW 22:34:31 36° WSW 22:34:31 36° WSW visible
07 Mar 7.6 19:57:37 10° WNW 20:07:31 89° NNE 20:12:50 34° ESE visible
07 Mar 8.2 22:02:39 10° WNW 22:10:52 43° WSW 22:10:52 43° WSW visible
08 Mar 7.6 20:32:28 10° WNW 20:42:19 87° NNE 20:49:12 24° ESE visible
08 Mar 8.0 22:37:26 10° WNW 22:46:49 48° SW 22:47:14 47° SSW visible
09 Mar 7.6 20:07:18 10° WNW 20:17:06 84° NNE 20:25:37 16° ESE visible
09 Mar 8.0 22:12:14 10° WNW 22:21:42 51° SW 22:23:39 46° S visible
10 Mar 9.5 00:19:47 10° W 00:21:42 13° WSW 00:21:42 13° WSW visible
10 Mar 7.7 19:42:08 10° WNW 19:51:54 82° NNE 20:02:02 10° ESE visible
10 Mar 8.0 21:47:03 10° WNW 21:56:35 54° SW 22:00:08 39° SSE visible
10 Mar 9.3 23:54:03 10° W 23:58:11 16° WSW 23:58:11 16° WSW visible
11 Mar 7.9 21:21:52 10° WNW 21:31:27 58° SW 21:36:39 30° SSE visible
11 Mar 9.2 23:28:27 10° W 23:34:42 19° SW 23:34:42 19° SW visible
12 Mar 7.9 20:56:42 10° WNW 21:06:19 61° SW 21:13:14 22° SE visible
12 Mar 9.0 23:02:57 10° W 23:09:55 21° SW 23:11:17 20° SW visible
13 Mar 7.9 20:31:32 10° WNW 20:41:10 65° SSW 20:49:53 14° SE visible
13 Mar 9.0 22:37:30 10° W 22:44:51 23° SW 22:47:56 20° SSW visible
14 Mar 7.9 20:06:22 10° WNW 20:16:01 68° SSW 20:25:58 10° SE visible
14 Mar 9.0 22:12:06 10° W 22:19:48 25° SW 22:24:40 17° SSW visible
